Regional Weather Roundup
Issued by NWS Newport/Morehead, NC

Current Version | Previous Version | Graphics & Text | Print | Product List | Glossary Off
Versions: 1 2 3 4 5 6 7 8 9 10 11 12 13 14 15 16 17 18 19 20 21 22 23 24 25 26 27 28 29 30 31 32 33 34 35 36 37 38 39 40 41 42 43 44 45 46 47 48 49 50

000
ASUS42 KMHX 261212
RWRMHX
WEATHER ROUNDUP FOR EASTERN NORTH CAROLINA
NATIONAL WEATHER SERVICE NEWPORT/MOREHEAD CITY NC
800 AM EDT SUN APR 26 2015

NOTE: "FAIR" INDICATES FEW OR NO CLOUDS BELOW 12,000 FEET
WITH NO SIGNIFICANT WEATHER AND/OR OBSTRUCTIONS TO VISIBILITY

NCZ015>017-031-032-045>047-102-103-261300-
NORTH COAST

CITY           SKY/WX    TMP DP  RH WIND       PRES   REMARKS
EDENTON        CLOUDY    47  46  95 NE6       29.62R
ELIZABETH CITY CLOUDY    48  45  89 NE13      29.62R
KITTY HAWK     CLOUDY    47  47  99 N8G16     29.59R
MANTEO         CLOUDY    48  47  94 NE15      29.60R

$$

NCZ045>047-081-094-103-104-261300-
CENTRAL COAST

CITY           SKY/WX    TMP DP  RH WIND       PRES   REMARKS
FRISCO         CLOUDY    51  51 100 NE9       29.57S
SWANQUARTER      N/A     52 N/A N/A NE6G14    29.56S

$$

NCZ095-097-098-100-101-261300-
SOUTHERN COAST

CITY           SKY/WX    TMP DP  RH WIND       PRES   REMARKS
BEAUFORT       CLOUDY    57  56  96 NE8       29.58R
CEDAR ISLAND     N/A     55 N/A N/A N15       29.62S
JACKSONVILLE   CLOUDY    55  54  96 N9        29.60R FOG
PINEY ISLAND   LGT RAIN N/A N/A N/A NE12      29.57S
WILMINGTON     CLOUDY    62  60  93 NE5       29.56S


$$

NCZ011>013-027>030-043-044-078>080-089-090>093-098-261300-
COASTAL PLAIN

CITY           SKY/WX    TMP DP  RH WIND       PRES   REMARKS
AHOSKIE        CLOUDY    47  45  93 N6        29.65R
CLINTON        CLOUDY    50  50 100 N6        29.63R FOG
ELIZABETHTOWN  CLOUDY    56  56 100 N5        29.60R FOG
GOLDSBORO      LGT RAIN  49  49 100 N3        29.60R FOG
GREENVILLE     CLOUDY    48  48 100 NE6       29.65R FOG
HAVELOCK       CLOUDY    55  53  93 N8        29.60R
KENANSVILLE    CLOUDY    49  49  99 CALM      29.62R FOG
KINSTON        DRIZZLE   50  50 100 N5        29.61R
NEW BERN       LGT RAIN  53  51  93 NE7       29.61R FOG
RICHLANDS      CLOUDY    52  48  87 N8        29.60R VSB 1
ROCKY MOUNT    LGT RAIN  48  47  96 N8        29.64R FOG
WASHINGTON     CLOUDY    48  47  97 NE6       29.62R FOG
WHITEVILLE     CLOUDY    63  61  95 N5        29.58R FOG

$$

AMZ130-135-150-152-154-156-158-170-250-252-270-ANZ085-086-088-633-658-670-261300-
MARINE OBSERVATIONS

STATION/POSITION TIME  TEMP    WIND        PRES    WAVE   SWELL
                       AIR SEA DIR/SP/G            HT/PER HT/PER
                 (UTC) (F)     (DEG/KT/KT) (MB)    (FT/S) (FT/S)
CHESAPEAKE LIGHT 1100   46      40/ 16/ 17 1003.9
64 E VA BEACH    1150   54 59   40/ 19/ 23 1001.6    6/ 6   2/11
DUCK             1100   47 54   30/ 23/ 26 1000.9
2 E DUCK         1111      54                N/A     6/ 6
10 NE DUCK       NOT AVBL
OREGON INLET     1100   49 54   20/ 16/ 24 1000.8
HATTERAS CG      1100   55 65   30/ 11/ 18 1000.6
DIAMOND BUOY     1150   60 68   40/ 14/ 16 1000.5    4/ 7   3/ 7
CAPE LOOKOUT     1200   59      30/  9/ 13 1001.2
BEAUFORT LAB     1100   57 63   30/  7/ 11 1000.3
27 SE WRIGHTSVLE 1100   66 72  270/ 16/ 19   N/A
5 SE WRIGHTSVLE  1108   64 65   40/  8/ 12 1000.6
225 S CAPE HAT   1150   71 70  260/ 19/ 21 1002.7    6/ 7   2/12
41 SE CHARLESTON 1150   71 71  260/ 21/ 25 1002.4    5/ 5   2/13

$$



USA.gov is the U.S. government's official web portal to all federal, state and local government web resources and services.